Overview Statistics Trail Chart Weather Telemetry Raw packets
 

This is the latest recevied weather packets stored in our database for station/object KO6LQK. If no packets are shown the sender has not sent any weather packets the latest 10 day(s).

<< 10 11 12 13 14 15 16 >>
Time Temp. Humidity Pressure Rain* Wind** Luminosity Snow
1788372355 25.56° C 22% 1022.9 hPa 0 mm - 765 W/m² -
1788372051 25.56° C 23% 1022.9 hPa 0 mm - 744 W/m² -
1788371751 25.56° C 22% 1022.9 hPa 0 mm - 732 W/m² -
1788371447 25.56° C 22% 1022.9 hPa 0 mm - 718 W/m² -
1788371143 25.56° C 22% 1023 hPa 0 mm - 709 W/m² -
1788370851 25° C 22% 1022.9 hPa 0 mm - 692 W/m² -
1788370544 24.44° C 22% 1023 hPa 0 mm - 682 W/m² -
1788370239 24.44° C 23% 1023 hPa 0 mm - 667 W/m² -
1788369939 24.44° C 23% 1022.9 hPa 0 mm - 658 W/m² -
1788369634 23.89° C 23% 1023 hPa 0 mm - 642 W/m² -
1788369330 23.89° C 24% 1023.2 hPa 0 mm - 629 W/m² -
1788369025 23.89° C 24% 1023.1 hPa 0 mm - 611 W/m² -
1788368720 23.89° C 24% 1023 hPa 0 mm - 601 W/m² -
1788368416 23.33° C 24% 1023 hPa 0 mm - 583 W/m² -
1788368116 23.33° C 25% 1022.9 hPa 0 mm - 567 W/m² -
1788367816 23.33° C 24% 1022.9 hPa 0 mm - 556 W/m² -
1788367511 23.33° C 24% 1022.8 hPa 0 mm - 539 W/m² -
1788367210 23.33° C 23% 1023 hPa 0 mm - 528 W/m² -
1788366905 22.78° C 23% 1022.8 hPa 0 mm - 511 W/m² -
1788366603 22.78° C 22% 1022.4 hPa 0 mm - 499 W/m² -
1788366298 22.78° C 23% 1022.8 hPa 0 mm - 482 W/m² -
1788365999 22.78° C 23% 1022.8 hPa 0 mm - 469 W/m² -
1788365694 22.22° C 24% 1023.1 hPa 0 mm - 453 W/m² -
1788365389 22.22° C 24% 1023.2 hPa 0 mm - 443 W/m² -
1788365085 21.67° C 25% 1023.1 hPa 0 mm - 425 W/m² -

* Rain latest hour (hover to see other rain measurements)
** Current wind speed in m/s (hover to see current wind gust speed)